Find Starlink 4101

NORAD ID: 53142 Int'l Des: 2022-083 Owner: SPXS Country: US Constellation: starlink operational
LEOCIRCULAR

現在のビュー

3D地球を読み込み中...

About Starlink 4101

Starlink 4101 (NORAD 53142) is a starlink constellation satellite (v1.5) launched Jul 17, 2022 by SPXS of US. It operates in LEO, CIRCULAR orbit with a mass of 297.00 kg.

Starlink 4101について

説明を読み込み中...

次回通過

Passes for default location (London). Set your location on the main map for personalized predictions.

高度履歴

Loading altitude history...

軌道要素

1 53142U 22083L 26170.16668980 .00080121 00000-0 44514-2 0 9992
2 53142 53.1588 78.3835 0002008 67.9560 142.9330 15.13013958 5838
Epoch: Jun 19, 2026 • Age: 7 hours

現在のステータス

高度 530.5 km
速度 7.60 km/s
衛星直下点 46.31°N, 51.35°E
打ち上げ日 Jul 17, 2022
運用期間 3.9 years
タイプ internet

技術仕様

分類 Payload
質量 297.00 kg
乾燥質量 275.00 kg
総質量 297.00 kg
長さ 0.20 m
直径 2.80 m
スパン 9.00 m
形状 Box + pan
製造者 SPXS
バスタイプ Starlink
フェーズステータス In Orbit
所有者/国 SPXS/US

Most Searched